Skip Page Navigation
NASA JPL Caltech
NASA Logo - Jet Propulsion Laboratory + View the NASA Portal
+ Near-Earth Object (NEO) Program
Search JPL
JPL Home Earth Solar System Stars & Galaxies Technology
JPL Solar System Dynamics
BODIES ORBITS EPHEMERIDES TOOLS PHYSICAL DATA DISCOVERY FAQ SITE MAP
JPL Small-Body Database Browser
Search: [ help ]  
C/1970 K1 (White-Ortiz-Bolelli)
Classification: Parabolic Comet          SPK-ID: 1001141
Ephemeris | Orbit Diagram | Orbital Elements ]

[ show orbit diagram ]
Orbital Elements at Epoch 2440720.9859 (1970-May-14.5) TDB
Reference: SAO_2008 (heliocentric ecliptic J2000)
 Element Value Uncertainty (1-sigma)   Units 
e 1.0 n/a  
a n/a n/a AU
q 0.008879 n/a AU
i 139.0714 n/a deg
node 337.0147 n/a deg
peri 61.2903 n/a deg
M n/a n/a deg
tp 2440720.9859
(1970-May-14.48590000)
n/a JED
period n/a
n/a
n/a
n/a
d
yr
n n/a n/a deg/d
Q n/a n/a AU
  Orbit Determination Parameters
   # obs. used (total)      6  
   data-arc span      14 days  
   first obs. used      1970-05-23  
   last obs. used      1970-06-06  
   two-body model      T  
   producer      Marsden  

Additional Information
 original epoch not defined, assumed epoch=tp 
 2008 SAO Comet Catalog 

Ephemeris | Orbit Diagram | Orbital Elements ]

no physical parameters available
Ephemeris | Orbit Diagram | Orbital Elements ]
ABOUT SSD CREDITS/AWARDS PRIVACY/COPYRIGHT GLOSSARY LINKS
FirstGov 2013-Jun-18 06:26 UT
(server date/time)  
NASA Home Page
Site Manager:   Donald K. Yeomans
Webmaster  Alan B. Chamberlin